Location: Nag� el Ma?a??a
(24.0667°N, 32.8833°E)
Time: 23:57:44
(UTC+00:00)

Lacrosse 5 - Pass Details

Date: 05 February 2022
Orbit: 714 x 724 km, 57.0° (Epoch: 09 March)

Event Time Altitude Azimuth Distance (km) Brightness Sun altitude
Rises 17:05:39 0° 345° (NNW) 3,123 5.2 -20.5°
Reaches altitude 10° 17:08:51 10° 6° (N) 2,203 4.2 -21.2°
Enters shadow 17:09:24 12° 11° (N) 2,080 4.1 -21.3°
